Weather History for EHLW - December, 2012

Change the Weather History Date:

Friday, December 28, 2012

  Actual Average Record
Temperature  
Mean Temperature 38 °F -  
Max Temperature 48 °F 39 °F 48 °F (1998)
Min Temperature 29 °F 32 °F 8 °F (1996)
Degree Days  
Heating Degree Days 26    
Moisture  
Dew Point 37 °F    
Average Humidity 89    
Maximum Humidity 100    
Minimum Humidity 70    
Precipitation  
Precipitation 0.03 in - - ()
Sea Level Pressure  
Sea Level Pressure 30.07 in    
Wind  
Wind Speed 10 mph ()    
Max Wind Speed 20 mph    
Max Gust Speed 30 mph    
Visibility 5.2 miles    
Events Rain    
Averages and records for this station are not official NWS values.
T = Trace of Precipitation, MM = Missing Value Source: Averaged Metar Reports

Daily Weather History Graph

Daily Weather History Graph

Search for Another Location

Airport or City:

Trip Planner

Search our weather history database for the weather conditions in past years. The results will help you decide how hot, cold, wet, or windy it might be!

Date:

Astronomy

Dec. 28, 2012 Rise Set
Actual Time 8:51 AM CET 4:25 PM CET
Civil Twilight 8:09 AM CET 5:08 PM CET
Nautical Twilight 7:24 AM CET 5:53 PM CET
Astronomical Twilight 6:41 AM CET 6:35 PM CET
Moon 4:56 PM CET (12/28) 8:27 AM CET (12/28)
Length of Visible Light 8h 59m
Length of Day
7h 34m
Full, 100% of the Moon is Illuminated
Dec 28
Full
Jan 5
Last Quarter
Jan 11
New
Jan 19
First Quarter
Jan 27
Full

Hourly Weather History & Observations

Time (CET) Temp. Windchill Dew Point Humidity Pressure Visibility Wind Dir Wind Speed Gust Speed Precip Events Conditions
12:25 AM 37.4 °F 32.1 °F 30.2 °F 75% 30.04 in 6.2 mi NNE 6.9 mph - N/A   Overcast
12:55 AM 37.4 °F 32.8 °F 30.2 °F 75% 30.06 in 6.2 mi NNE 5.8 mph - N/A   Overcast
1:00 AM 36 °F - 30 °F 70% 30.07 in 17 mi NE 4.5 mph - -   Partly Cloudy
1:25 AM 35.6 °F 31.7 °F 28.4 °F 75% 30.06 in 6.2 mi NE 4.6 mph - N/A   Overcast
1:55 AM 35.6 °F 32.8 °F 28.4 °F 75% 30.09 in 6.2 mi ENE 3.5 mph - N/A   Overcast
2:25 AM 35.6 °F - 30.2 °F 81% 30.12 in 6.2 mi East 2.3 mph - N/A   Overcast
2:55 AM 33.8 °F - 30.2 °F 87% 30.12 in 6.2 mi NNE 1.2 mph - N/A   Overcast
3:25 AM 32.0 °F - 30.2 °F 93% 30.15 in 6.2 mi NE 1.2 mph - N/A   Overcast
3:55 AM 32.0 °F - 28.4 °F 87% 30.15 in 6.2 mi Calm Calm - N/A   Unknown
4:25 AM 32.0 °F - 28.4 °F 87% 30.15 in 6.2 mi ESE 2.3 mph - N/A   Unknown
4:55 AM 30.2 °F 25.4 °F 28.4 °F 93% 30.15 in 6.2 mi South 4.6 mph - N/A   Unknown
5:25 AM 30.2 °F 25.4 °F 28.4 °F 93% 30.18 in 6.2 mi South 4.6 mph - N/A   Unknown
5:55 AM 30.2 °F 25.4 °F 28.4 °F 93% 30.18 in 6.2 mi South 4.6 mph - N/A   Unknown
6:25 AM 32.0 °F 27.5 °F 30.2 °F 93% 30.18 in 6.2 mi SSE 4.6 mph - N/A   Unknown
6:55 AM 33.8 °F 28.6 °F 28.4 °F 81% 30.18 in 6.2 mi SSE 5.8 mph - N/A   Partly Cloudy
7:00 AM 34 °F - 28 °F 70% 30.20 in 12 mi SSE 6.7 mph - -   Partly Cloudy
7:25 AM 33.8 °F 27.7 °F 28.4 °F 81% 30.18 in 6.2 mi SSE 6.9 mph - N/A   Mostly Cloudy
7:55 AM 33.8 °F 26.4 °F 28.4 °F 81% 30.18 in 6.2 mi SSE 9.2 mph - N/A   Mostly Cloudy
8:25 AM 33.8 °F 25.3 °F 28.4 °F 81% 30.18 in 6.2 mi SSE 11.5 mph - N/A   Mostly Cloudy
8:55 AM 33.8 °F 25.3 °F 28.4 °F 81% 30.18 in 6.2 mi SSE 11.5 mph - N/A   Mostly Cloudy
9:25 AM 33.8 °F 24.8 °F 28.4 °F 81% 30.21 in 6.2 mi SSE 12.7 mph - N/A   Mostly Cloudy
9:55 AM 33.8 °F 25.3 °F 28.4 °F 81% 30.21 in 6.2 mi SSE 11.5 mph - N/A   Mostly Cloudy
10:25 AM 33.8 °F 24.8 °F 30.2 °F 87% 30.18 in 6.2 mi SSE 12.7 mph - N/A   Mostly Cloudy
10:55 AM 33.8 °F 24.8 °F 30.2 °F 87% 30.18 in 6.2 mi SSE 12.7 mph - N/A   Mostly Cloudy
11:08 AM 33.8 °F 24.8 °F 30.2 °F 87% 30.18 in 6.2 mi SSE 12.7 mph - N/A   Overcast
11:25 AM 35.6 °F 26.6 °F 30.2 °F 81% 30.18 in 6.2 mi SSE 13.8 mph - N/A   Overcast
11:34 AM 35.6 °F 27.1 °F 30.2 °F 81% 30.18 in 1.3 mi SSE 12.7 mph - N/A   Overcast
11:38 AM 35.6 °F 27.1 °F 30.2 °F 81% 30.18 in 6.2 mi SSE 12.7 mph - N/A   Overcast
11:51 AM 35.6 °F 27.1 °F 30.2 °F 81% 30.18 in 6.2 mi SSE 12.7 mph - N/A   Overcast
11:55 AM 35.6 °F 27.1 °F 30.2 °F 81% 30.18 in 6.2 mi SSE 12.7 mph - N/A   Mostly Cloudy
11:59 AM 35.6 °F 27.5 °F 30.2 °F 81% 30.15 in 6.2 mi SSE 11.5 mph - N/A   Mostly Cloudy
12:04 PM 35.6 °F 27.5 °F 30.2 °F 81% 30.15 in 6.2 mi SSE 11.5 mph - N/A   Mostly Cloudy
12:08 PM 35.6 °F 27.5 °F 30.2 °F 81% 30.15 in 6.2 mi SSE 11.5 mph - N/A   Mostly Cloudy
12:25 PM 35.6 °F 26.6 °F 32.0 °F 87% 30.15 in 6.2 mi South 13.8 mph - N/A   Overcast
12:29 PM 35.6 °F 26.2 °F 32.0 °F 87% 30.15 in 6.2 mi South 15.0 mph - N/A   Overcast
12:55 PM 35.6 °F 26.6 °F 32.0 °F 87% 30.15 in 6.2 mi South 13.8 mph - N/A   Mostly Cloudy
1:00 PM 36 °F - 32 °F 81% 30.16 in 11 mi South 13.4 mph - -   Partly Cloudy
1:20 PM 37.4 °F 29.3 °F 32.0 °F 81% 30.12 in 6.2 mi South 12.7 mph - N/A   Mostly Cloudy
1:25 PM 37.4 °F 29.3 °F 32.0 °F 81% 30.12 in 6.2 mi South 12.7 mph - N/A   Mostly Cloudy
1:55 PM 37.4 °F 28.9 °F 33.8 °F 87% 30.12 in 6.2 mi South 13.8 mph - N/A   Mostly Cloudy
2:25 PM 39.2 °F 30.8 °F 35.6 °F 87% 30.09 in 5.6 mi South 15.0 mph - N/A   Light Drizzle
2:39 PM 39.2 °F 31.2 °F 37.4 °F 93% 30.09 in 4.3 mi South 13.8 mph - N/A   Light Drizzle
2:43 PM 39.2 °F 30.8 °F 37.4 °F 93% 30.09 in 5.0 mi South 15.0 mph - N/A   Light Drizzle
2:47 PM 39.2 °F 30.8 °F 37.4 °F 93% 30.06 in 4.3 mi South 15.0 mph - N/A   Light Drizzle
2:55 PM 39.2 °F 30.8 °F 37.4 °F 93% 30.06 in 3.7 mi South 15.0 mph - N/A   Drizzle
3:25 PM 41.0 °F 32.8 °F 39.2 °F 93% 30.06 in 3.7 mi South 16.1 mph - N/A   Mostly Cloudy
3:47 PM 41.0 °F 32.8 °F 39.2 °F 93% 30.04 in 3.7 mi South 16.1 mph - N/A   Mostly Cloudy
3:55 PM 41.0 °F 32.5 °F 39.2 °F 93% 30.04 in 3.7 mi South 17.3 mph - N/A   Mostly Cloudy
3:59 PM 41.0 °F 32.5 °F 39.2 °F 93% 30.04 in 3.7 mi South 17.3 mph - N/A   Mostly Cloudy
4:01 PM 41.0 °F 32.5 °F 39.2 °F 93% 30.04 in 3.7 mi South 17.3 mph - N/A   Mostly Cloudy
4:13 PM 41.0 °F 32.5 °F 39.2 °F 93% 30.04 in 4.3 mi South 17.3 mph - N/A   Mostly Cloudy
4:14 PM 41.0 °F 32.5 °F 39.2 °F 93% 30.04 in 3.7 mi South 17.3 mph - N/A   Mostly Cloudy
4:25 PM 41.0 °F 32.5 °F 39.2 °F 93% 30.04 in 3.7 mi South 17.3 mph - N/A   Mostly Cloudy
4:47 PM 42.8 °F 34.5 °F 41.0 °F 93% 30.04 in - South 18.4 mph - N/A   Overcast
4:55 PM 42.8 °F 34.5 °F 41.0 °F 93% 30.04 in 2.2 mi South 18.4 mph - N/A   Overcast
5:25 PM 42.8 °F 35.1 °F 41.0 °F 93% 30.04 in - South 16.1 mph - N/A   Overcast
5:29 PM 42.8 °F 35.1 °F 41.0 °F 93% 30.04 in - South 16.1 mph - N/A   Overcast
5:30 PM 42.8 °F 35.1 °F 41.0 °F 93% 30.04 in - South 16.1 mph - N/A   Overcast
5:55 PM 42.8 °F 35.1 °F 42.8 °F 100% 30.01 in 2.5 mi South 16.1 mph - N/A   Overcast
6:04 PM 42.8 °F 34.8 °F 42.8 °F 100% 30.01 in - South 17.3 mph - N/A   Overcast
6:11 PM 42.8 °F 34.8 °F 42.8 °F 100% 30.01 in - South 17.3 mph - N/A   Overcast
6:25 PM 44.6 °F 36.9 °F 42.8 °F 93% 30.01 in 3.1 mi South 18.4 mph - N/A   Overcast
6:30 PM 44.6 °F 36.6 °F 42.8 °F 93% 30.01 in - South 19.6 mph - N/A   Overcast
6:49 PM 44.6 °F 37.2 °F 42.8 °F 93% 29.98 in - South 17.3 mph - N/A   Overcast
6:55 PM 44.6 °F 36.9 °F 44.6 °F 100% 29.98 in - SSW 18.4 mph - N/A   Overcast
7:00 PM 45 °F - 44 °F 93% 30.00 in 2 mi SSW 17.9 mph - - Rain Drizzle
7:25 PM 44.6 °F 36.9 °F 44.6 °F 100% 29.98 in - SSW 18.4 mph - N/A   Overcast
7:38 PM 44.6 °F 36.9 °F 44.6 °F 100% 29.98 in - SSW 18.4 mph 29.9 mph N/A   Overcast
7:55 PM 46.4 °F 39.2 °F 44.6 °F 93% 29.98 in - SSW 18.4 mph - N/A   Overcast
8:16 PM 46.4 °F 39.5 °F 44.6 °F 93% 29.98 in 3.1 mi SSW 17.3 mph - N/A   Overcast
8:25 PM 46.4 °F 39.2 °F 44.6 °F 93% 29.98 in 3.1 mi SSW 18.4 mph - N/A   Overcast
8:32 PM 46.4 °F 39.2 °F 44.6 °F 93% 29.98 in - SSW 18.4 mph - N/A   Overcast
8:55 PM 46.4 °F 39.8 °F 46.4 °F 100% 29.95 in 2.8 mi SSW 16.1 mph - N/A   Overcast
9:03 PM 46.4 °F 39.5 °F 46.4 °F 100% 29.95 in - SSW 17.3 mph - N/A   Overcast
9:25 PM 46.4 °F 39.5 °F 46.4 °F 100% 29.95 in - SSW 17.3 mph - N/A   Overcast
9:49 PM 48.2 °F - 46.4 °F 93% 29.95 in - SSW 16.1 mph - N/A   Overcast
9:55 PM 48.2 °F - 46.4 °F 93% 29.95 in - SSW 16.1 mph - N/A   Overcast
10:25 PM 48.2 °F - 46.4 °F 93% 29.95 in 3.1 mi SSW 16.1 mph - N/A   Overcast
10:39 PM 48.2 °F - 46.4 °F 93% 29.95 in 3.1 mi SSW 16.1 mph - N/A   Overcast
10:47 PM 48.2 °F - 46.4 °F 93% 29.95 in - SSW 16.1 mph - N/A   Overcast
10:55 PM 48.2 °F - 46.4 °F 93% 29.95 in 3.1 mi SSW 15.0 mph - N/A   Mostly Cloudy
11:02 PM 48.2 °F - 46.4 °F 93% 29.95 in 1.7 mi SSW 16.1 mph - N/A   Mostly Cloudy
11:15 PM 48.2 °F - 46.4 °F 93% 29.95 in 3.1 mi SSW 17.3 mph - N/A   Mostly Cloudy
11:25 PM 48.2 °F - 46.4 °F 93% 29.95 in 3.1 mi SSW 17.3 mph - N/A   Overcast
11:33 PM 48.2 °F - 46.4 °F 93% 29.95 in 3.1 mi SSW 17.3 mph - N/A   Mostly Cloudy
11:37 PM 48.2 °F - 46.4 °F 93% 29.95 in 3.1 mi SSW 16.1 mph - N/A   Mostly Cloudy
11:45 PM 48.2 °F - 48.2 °F 100% 29.95 in 3.7 mi SSW 17.3 mph - N/A   Mostly Cloudy
11:55 PM 48.2 °F - 48.2 °F 100% 29.95 in 3.7 mi SSW 18.4 mph - N/A   Overcast